TimeCDT,TemperatureF,Dew PointF,Humidity,Sea Level PressureIn,VisibilityMPH,Wind Direction,Wind SpeedMPH,Gust SpeedMPH,PrecipitationIn,Events,Conditions,WindDirDegrees,DateUTC
12:15 AM,46.4,45.5,97,29.96,10.0,South,5.8,-,N/A,,Clear,170,2013-09-29 05:15:00
12:35 AM,45.5,44.8,97,29.96,10.0,SSE,4.6,-,N/A,,Clear,160,2013-09-29 05:35:00
12:55 AM,45.1,44.4,97,29.96,10.0,SSE,3.5,-,N/A,,Clear,150,2013-09-29 05:55:00
1:15 AM,46.4,45.5,97,29.96,10.0,South,4.6,-,N/A,,Clear,170,2013-09-29 06:15:00
1:35 AM,46.6,45.7,97,29.97,10.0,Calm,Calm,-,N/A,,Clear,0,2013-09-29 06:35:00
1:55 AM,46.2,45.3,97,29.97,10.0,Calm,Calm,-,N/A,,Clear,0,2013-09-29 06:55:00
2:15 AM,45.7,44.6,96,29.97,10.0,Calm,Calm,-,N/A,,Clear,0,2013-09-29 07:15:00
2:35 AM,46.4,45.0,95,29.97,10.0,Calm,Calm,-,N/A,,Clear,0,2013-09-29 07:35:00
2:55 AM,45.7,44.4,95,29.97,10.0,Calm,Calm,-,N/A,,Clear,0,2013-09-29 07:55:00
3:15 AM,46.4,44.6,93,29.96,10.0,SSE,3.5,-,N/A,,Clear,160,2013-09-29 08:15:00
3:35 AM,46.2,44.6,94,29.96,10.0,South,4.6,-,N/A,,Clear,170,2013-09-29 08:35:00
3:55 AM,46.2,44.6,94,29.96,10.0,SSE,3.5,-,N/A,,Clear,160,2013-09-29 08:55:00
4:15 AM,46.6,44.2,92,29.96,10.0,Calm,Calm,-,N/A,,Clear,0,2013-09-29 09:15:00
4:35 AM,45.3,43.0,92,29.97,10.0,Calm,Calm,-,N/A,,Clear,0,2013-09-29 09:35:00
4:55 AM,45.5,43.0,91,29.97,10.0,Calm,Calm,-,N/A,,Clear,0,2013-09-29 09:55:00
5:15 AM,45.7,43.7,93,29.97,10.0,Calm,Calm,-,N/A,,Clear,0,2013-09-29 10:15:00
5:35 AM,43.9,42.4,95,29.97,10.0,Calm,Calm,-,N/A,,Clear,0,2013-09-29 10:35:00
5:55 AM,43.0,42.1,97,29.98,10.0,SSE,3.5,-,N/A,,Clear,160,2013-09-29 10:55:00
6:15 AM,43.0,41.9,96,29.98,10.0,SE,3.5,-,N/A,,Clear,140,2013-09-29 11:15:00
6:35 AM,43.2,42.1,96,29.99,10.0,SSE,4.6,-,N/A,,Clear,150,2013-09-29 11:35:00
6:55 AM,44.1,42.8,95,29.99,10.0,SE,3.5,-,N/A,,Clear,140,2013-09-29 11:55:00
7:15 AM,44.2,43.2,96,29.99,10.0,SSE,5.8,-,N/A,,Clear,150,2013-09-29 12:15:00
7:35 AM,44.8,43.2,94,29.99,10.0,SE,4.6,-,N/A,,Clear,140,2013-09-29 12:35:00
7:55 AM,46.0,44.1,93,29.99,10.0,SSE,5.8,-,N/A,,Clear,150,2013-09-29 12:55:00
8:15 AM,47.8,45.1,90,29.99,10.0,SSE,4.6,-,N/A,,Clear,160,2013-09-29 13:15:00
8:35 AM,49.1,46.4,90,29.99,10.0,SSE,5.8,-,N/A,,Clear,160,2013-09-29 13:35:00
8:55 AM,50.5,46.2,85,29.99,10.0,SE,4.6,-,N/A,,Clear,140,2013-09-29 13:55:00
9:15 AM,52.0,47.1,83,29.99,10.0,SSE,5.8,-,N/A,,Clear,150,2013-09-29 14:15:00
9:35 AM,53.6,47.1,79,29.99,10.0,SSE,4.6,-,N/A,,Clear,160,2013-09-29 14:35:00
9:55 AM,55.4,47.8,76,29.99,10.0,South,5.8,-,N/A,,Clear,170,2013-09-29 14:55:00
10:15 AM,56.7,47.5,71,29.99,10.0,SSE,6.9,-,N/A,,Clear,160,2013-09-29 15:15:00
10:35 AM,58.3,47.8,68,29.99,10.0,South,4.6,-,N/A,,Clear,170,2013-09-29 15:35:00
10:55 AM,59.4,48.2,67,29.99,10.0,SSE,5.8,-,N/A,,Clear,150,2013-09-29 15:55:00
11:15 AM,61.0,48.6,64,29.99,10.0,SSE,6.9,-,N/A,,Clear,160,2013-09-29 16:15:00
11:35 AM,63.1,48.2,58,29.98,10.0,South,8.1,-,N/A,,Clear,170,2013-09-29 16:35:00
11:55 AM,64.4,48.4,56,29.98,10.0,South,8.1,-,N/A,,Clear,170,2013-09-29 16:55:00
12:15 PM,65.3,48.4,54,29.97,10.0,SE,8.1,-,N/A,,Clear,140,2013-09-29 17:15:00
12:35 PM,66.4,46.6,49,29.96,10.0,South,10.4,-,N/A,,Clear,170,2013-09-29 17:35:00
12:55 PM,67.8,45.9,45,29.96,10.0,SSE,8.1,-,N/A,,Clear,150,2013-09-29 17:55:00
1:15 PM,69.1,46.0,44,29.95,10.0,South,8.1,16.1,N/A,,Clear,170,2013-09-29 18:15:00
1:35 PM,70.2,45.3,41,29.94,10.0,SSW,9.2,-,N/A,,Clear,200,2013-09-29 18:35:00
1:55 PM,71.2,43.7,37,29.93,10.0,SSW,9.2,-,N/A,,Clear,200,2013-09-29 18:55:00
2:15 PM,71.4,45.0,39,29.92,10.0,South,10.4,16.1,N/A,,Clear,170,2013-09-29 19:15:00
2:35 PM,72.0,43.5,36,29.91,10.0,South,10.4,-,N/A,,Clear,190,2013-09-29 19:35:00
2:55 PM,72.9,42.6,34,29.90,10.0,South,15.0,18.4,N/A,,Clear,180,2013-09-29 19:55:00
3:15 PM,73.6,41.2,31,29.90,10.0,South,11.5,18.4,N/A,,Clear,180,2013-09-29 20:15:00
3:35 PM,74.3,41.5,31,29.89,10.0,South,10.4,-,N/A,,Clear,180,2013-09-29 20:35:00
3:55 PM,74.3,41.9,31,29.89,10.0,South,13.8,-,N/A,,Clear,180,2013-09-29 20:55:00
4:15 PM,74.3,42.4,32,29.88,10.0,South,9.2,16.1,N/A,,Clear,180,2013-09-29 21:15:00
4:35 PM,73.6,43.9,34,29.87,10.0,SSE,12.7,16.1,N/A,,Clear,150,2013-09-29 21:35:00
4:55 PM,73.4,44.6,36,29.87,10.0,SSE,12.7,-,N/A,,Clear,150,2013-09-29 21:55:00
5:15 PM,73.4,45.3,37,29.87,10.0,SSE,9.2,-,N/A,,Clear,160,2013-09-29 22:15:00
5:35 PM,72.9,44.8,37,29.86,10.0,SSE,12.7,-,N/A,,Clear,160,2013-09-29 22:35:00
5:55 PM,72.5,42.8,34,29.86,10.0,SSE,9.2,-,N/A,,Clear,160,2013-09-29 22:55:00
6:15 PM,70.7,44.8,39,29.85,10.0,SSE,9.2,-,N/A,,Clear,150,2013-09-29 23:15:00
6:35 PM,69.1,45.1,42,29.84,10.0,SE,9.2,-,N/A,,Clear,140,2013-09-29 23:35:00
6:55 PM,67.5,45.0,44,29.85,10.0,SSE,9.2,-,N/A,,Clear,150,2013-09-29 23:55:00
7:15 PM,66.6,44.4,45,29.85,10.0,SE,9.2,-,N/A,,Clear,140,2013-09-30 00:15:00
7:35 PM,65.7,45.7,48,29.85,10.0,SE,10.4,-,N/A,,Clear,140,2013-09-30 00:35:00
7:55 PM,65.3,46.2,50,29.85,10.0,SE,10.4,-,N/A,,Clear,140,2013-09-30 00:55:00
8:15 PM,64.6,46.8,52,29.85,10.0,SSE,11.5,-,N/A,,Clear,150,2013-09-30 01:15:00
8:35 PM,64.2,46.8,53,29.86,10.0,SSE,12.7,-,N/A,,Clear,150,2013-09-30 01:35:00
8:55 PM,63.5,46.8,54,29.85,10.0,SSE,12.7,18.4,N/A,,Clear,150,2013-09-30 01:55:00
9:15 PM,63.0,46.4,55,29.85,10.0,SSE,12.7,-,N/A,,Clear,150,2013-09-30 02:15:00
9:35 PM,62.2,46.4,56,29.86,10.0,SSE,11.5,-,N/A,,Clear,160,2013-09-30 02:35:00
9:55 PM,62.1,46.0,56,29.86,10.0,SSE,11.5,-,N/A,,Clear,160,2013-09-30 02:55:00
10:15 PM,62.1,45.7,55,29.86,10.0,SSE,11.5,17.3,N/A,,Clear,160,2013-09-30 03:15:00
10:35 PM,61.5,45.7,56,29.85,10.0,SSE,11.5,16.1,N/A,,Clear,160,2013-09-30 03:35:00
10:55 PM,61.9,45.5,55,29.85,10.0,South,12.7,-,N/A,,Clear,170,2013-09-30 03:55:00
11:15 PM,62.1,45.5,55,29.85,10.0,South,11.5,17.3,N/A,,Clear,170,2013-09-30 04:15:00
11:35 PM,61.7,45.5,55,29.84,10.0,South,12.7,-,N/A,,Clear,170,2013-09-30 04:35:00
11:55 PM,61.3,45.5,56,29.84,10.0,South,11.5,-,N/A,,Clear,170,2013-09-30 04:55:00